• Currently

    Reported at Don Muang
    2:00 PM GMT+7 WED MAR 29 2017
  • 75°F24°C
  • Thunder Storms
    Thunder Storms
  • Feels Like:75°F24°CDew Point:73°F23°CHumidity:94% Winds:SSE 10 mph 16 kph
    Pressure:29.91 in1013 hPaVisibility:3.11 miles5000.00 meters
Time Weather Temp Dew Point
Humidity Winds Visibility Pressure Precipitation
1 hr 24 hr
Wednesday, March 29
13:00 13:00 Mostly Cloudy With Thunderstorms Mostly Cloudy With Thunderstorms 75°F24°C 73°F23°C 94% SSE 10 mphSSE 17 kph 3.1 miles5.0 km 29.91 in1013 hPa -- --
12:30 12:30 Mostly Cloudy With Thunderstorms Mostly Cloudy With Thunderstorms 77°F25°C 73°F23°C 89% SE 21 mphSE 33 kph 3.1 miles5.0 km 29.91 in1013 hPa -- --
12:00 12:00 Mostly Cloudy With Showers Nearby Mostly Cloudy With Showers Nearby 90°F32°C 75°F24°C 63% SW 7 mphSW 11 kph 30.0 miles48.3 km 29.91 in1013 hPa -- --
11:30 11:30 Partly Cloudy Partly Cloudy 91°F33°C 75°F24°C 59% W 9 mphW 15 kph 30.0 miles48.3 km 29.91 in1013 hPa -- --
11:00 11:00 Partly Cloudy With Showers Nearby Partly Cloudy With Showers Nearby 88°F31°C 75°F24°C 66% W 12 mphW 19 kph 30.0 miles48.3 km 29.91 in1013 hPa -- --
10:30 10:30 Partly Cloudy With Showers Nearby Partly Cloudy With Showers Nearby 93°F34°C 75°F24°C 56% ESE 7 mphESE 11 kph 30.0 miles48.3 km 29.94 in1014 hPa -- --
10:00 10:00 Mostly Sunny Mostly Sunny 91°F33°C 75°F24°C 59% ENE 5 mphENE 7 kph 30.0 miles48.3 km 29.94 in1014 hPa -- --
09:30 09:30 Mostly Sunny Mostly Sunny 91°F33°C 75°F24°C 59% SW 6 mphSW 9 kph 30.0 miles48.3 km 29.94 in1014 hPa -- --
09:00 09:00 Mostly Sunny Mostly Sunny 90°F32°C 75°F24°C 63% WSW 3 mphWSW 6 kph 30.0 miles48.3 km 29.94 in1014 hPa -- --
08:30 08:30 Mostly Sunny Mostly Sunny 88°F31°C 77°F25°C 70% SE 5 mphSE 7 kph 30.0 miles48.3 km 29.94 in1014 hPa -- --
08:00 08:00 Mostly Sunny Mostly Sunny 86°F30°C 77°F25°C 75% ESE 5 mphESE 7 kph 5.0 miles8.0 km 29.94 in1014 hPa -- --
07:30 07:30 Mostly Sunny Mostly Sunny 84°F29°C 77°F25°C 79% ESE 6 mphESE 9 kph 5.0 miles8.0 km 29.94 in1014 hPa -- --
07:00 07:00 Mostly Sunny Mostly Sunny 82°F28°C 77°F25°C 84% E 6 mphE 9 kph 5.0 miles8.0 km 29.91 in1013 hPa -- --
06:30 06:30 Mostly Sunny Mostly Sunny 82°F28°C 77°F25°C 84% NE 5 mphNE 7 kph 5.0 miles8.0 km 29.91 in1013 hPa -- --
06:00 06:00 Mostly Sunny Mostly Sunny 81°F27°C 77°F25°C 89% ENE 5 mphENE 7 kph 5.0 miles8.0 km 29.88 in1012 hPa -- --
05:30 05:30 Mostly Sunny Mostly Sunny 81°F27°C 77°F25°C 89% NE 5 mphNE 7 kph 5.6 miles9.0 km 29.88 in1012 hPa -- --
05:00 05:00 Mostly Clear Mostly Clear 81°F27°C 75°F24°C 84% NE 3 mphNE 6 kph 5.6 miles9.0 km 29.88 in1012 hPa -- --
04:30 04:30 Mostly Clear Mostly Clear 81°F27°C 77°F25°C 89% NNE 5 mphNNE 7 kph 5.6 miles9.0 km 29.85 in1011 hPa -- --
04:00 04:00 Mostly Clear Mostly Clear 81°F27°C 77°F25°C 89% CalmCalm 5.6 miles9.0 km 29.85 in1011 hPa -- --
03:30 03:30 Mostly Clear Mostly Clear 82°F28°C 75°F24°C 79% CalmCalm 5.6 miles9.0 km 29.85 in1011 hPa -- --
03:00 03:00 Mostly Clear Mostly Clear 82°F28°C 75°F24°C 79% SSW 3 mphSSW 6 kph 5.6 miles9.0 km 29.85 in1011 hPa -- --
02:30 02:30 Mostly Clear Mostly Clear 82°F28°C 75°F24°C 79% SSW 3 mphSSW 6 kph 5.6 miles9.0 km 29.85 in1011 hPa -- --
02:00 02:00 Mostly Clear Mostly Clear 82°F28°C 75°F24°C 79% SSW 5 mphSSW 7 kph 5.6 miles9.0 km 29.85 in1011 hPa -- --
01:30 01:30 Mostly Clear Mostly Clear 82°F28°C 75°F24°C 79% SSW 5 mphSSW 7 kph 5.6 miles9.0 km 29.85 in1011 hPa -- --
01:00 01:00 Mostly Clear Mostly Clear 82°F28°C 77°F25°C 84% SSW 5 mphSSW 7 kph 5.6 miles9.0 km 29.85 in1011 hPa -- --
00:30 00:30 Mostly Clear Mostly Clear 84°F29°C 75°F24°C 74% SW 7 mphSW 11 kph 5.6 miles9.0 km 29.88 in1012 hPa -- --
00:00 00:00 Mostly Clear Mostly Clear 84°F29°C 75°F24°C 74% WSW 6 mphWSW 9 kph 30.0 miles48.3 km 29.88 in1012 hPa -- --
23:30 23:30 Mostly Clear Mostly Clear 84°F29°C 75°F24°C 74% WSW 7 mphWSW 11 kph 30.0 miles48.3 km 29.88 in1012 hPa -- --
23:00 23:00 Mostly Clear Mostly Clear 84°F29°C 75°F24°C 74% W 7 mphW 11 kph 30.0 miles48.3 km 29.91 in1013 hPa -- --